Weather History for Beckley, WV

Change the Weather History Date:

Sunday, November 24, 2013

  Actual Average Record
Temperature  
Mean Temperature 18 °F 41 °F  
Max Temperature 23 °F 49 °F 73 °F (1973)
Min Temperature 13 °F 32 °F 5 °F (1970)
Degree Days  
Heating Degree Days 47 24  
Month to date heating degree days 537 480  
Since 1 July heating degree days 970 986  
Cooling Degree Days 0 0  
Month to date cooling degree days 0 0  
Year to date cooling degree days 615 556  
Moisture  
Dew Point 6 °F    
Average Humidity 56    
Maximum Humidity 70    
Minimum Humidity 41    
Precipitation  
Precipitation 0.02 in 0.10 in 2.01 in (1959)
Month to date precipitation 1.60 2.35  
Year to date precipitation 34.80 37.59  
Snow  
Snow 0.00 in - - ()
Month to date snowfall 1.7  
Since 1 September snowfall 1.7  
Snow Depth 0.00 in    
Sea Level Pressure  
Sea Level Pressure 30.46 in    
Wind  
Wind Speed 10 mph (NW)    
Max Wind Speed 21 mph    
Max Gust Speed 31 mph    
Visibility 8 miles    
Events Fog , Snow    
T = Trace of Precipitation, MM = Missing Value Source: NWS Daily Summary

Daily Weather History Graph

Daily Weather History Graph

Search for Another Location

Airport:

Trip Planner

Search our weather history database for the weather conditions in past years. The results will help you decide how hot, cold, wet, or windy it might be!

Date:

Astronomy

Nov. 24, 2013 Rise Set
Actual Time 7:14 AM EST 5:07 PM EST
Civil Twilight 6:45 AM EST 5:36 PM EST
Nautical Twilight 6:13 AM EST 6:08 PM EST
Astronomical Twilight 5:42 AM EST 6:40 PM EST
Moon 11:28 PM EST (11/24) 12:04 PM EST (11/24)
Length of Visible Light 10h 50m
Length of Day
9h 53m
Waning Gibbous, 61% of the Moon is Illuminated
Nov 24
Waning Gibbous
Nov 25
Last Quarter
Dec 2
New
Dec 9
First Quarter
Dec 17
Full

Hourly Weather History & Observations

Time (EST) Temp. Windchill Dew Point Humidity Pressure Visibility Wind Dir Wind Speed Gust Speed Precip Events Conditions
12:51 AM 21.0 °F 7.6 °F 7.0 °F 55% 30.36 in 10.0 mi NW 15.0 mph 27.6 mph N/A   Overcast
1:51 AM 19.9 °F 5.7 °F 7.0 °F 57% 30.37 in 10.0 mi NW 16.1 mph 23.0 mph N/A   Overcast
2:36 AM 19.4 °F 7.2 °F 10.4 °F 68% 30.28 in 3.0 mi NW 11.5 mph - 0.00 in Snow Light Snow
2:42 AM 19.4 °F 7.9 °F 12.2 °F 74% 30.28 in 1.8 mi NW 10.4 mph - 0.00 in Snow Light Snow
2:51 AM 19.0 °F 5.0 °F 14.0 °F 81% 30.40 in 1.0 mi NNW 15.0 mph 20.7 mph 0.00 in Snow Light Snow
2:55 AM 19.4 °F 6.0 °F 15.8 °F 86% 30.29 in 0.5 mi NNW 13.8 mph 20.7 mph 0.00 in Fog , Snow Snow
3:08 AM 17.6 °F 5.7 °F 14.0 °F 86% 30.30 in 0.2 mi NNW 10.4 mph 24.2 mph 0.01 in Fog , Snow Heavy Snow
3:16 AM 17.6 °F 3.2 °F 12.2 °F 79% 30.30 in 0.5 mi NW 15.0 mph 19.6 mph 0.02 in Snow Snow
3:30 AM 17.6 °F 3.7 °F 12.2 °F 79% 30.30 in 1.0 mi NNW 13.8 mph - 0.02 in Snow Light Snow
3:38 AM 17.6 °F 1.7 °F 10.4 °F 73% 30.30 in 3.0 mi NW 18.4 mph 27.6 mph 0.02 in Snow Light Snow
3:46 AM 17.6 °F 2.2 °F 10.4 °F 73% 30.30 in 5.0 mi NW 17.3 mph 24.2 mph 0.02 in Snow Light Snow
3:51 AM 17.1 °F 2.0 °F 9.0 °F 71% 30.41 in 5.0 mi NW 16.1 mph 24.2 mph 0.02 in Snow Light Snow
4:32 AM 15.8 °F -0.2 °F 3.2 °F 58% 30.31 in 10.0 mi NW 17.3 mph 24.2 mph 0.00 in   Mostly Cloudy
4:51 AM 16.0 °F 2.3 °F 3.9 °F 59% 30.43 in 10.0 mi NNW 12.7 mph 20.7 mph 0.00 in   Mostly Cloudy
5:51 AM 14.0 °F -0.2 °F 3.0 °F 62% 30.46 in 10.0 mi NW 12.7 mph 20.7 mph N/A   Mostly Cloudy
6:51 AM 12.9 °F -2.8 °F 3.0 °F 65% 30.50 in 10.0 mi NW 15.0 mph 23.0 mph N/A   Mostly Cloudy
7:05 AM 12.2 °F -3.1 °F 3.2 °F 67% 30.37 in 10.0 mi NW 13.8 mph 18.4 mph N/A   Mostly Cloudy
7:51 AM 12.9 °F -2.8 °F 3.0 °F 65% 30.53 in 10.0 mi NNW 15.0 mph 24.2 mph N/A   Mostly Cloudy
8:51 AM 12.9 °F -0.2 °F 3.0 °F 65% 30.56 in 10.0 mi NNW 10.4 mph 20.7 mph N/A   Scattered Clouds
9:51 AM 15.1 °F -0.1 °F 3.9 °F 61% 30.57 in 10.0 mi NNW 15.0 mph - N/A   Scattered Clouds
10:51 AM 16.0 °F 1.7 °F 1.9 °F 54% 30.59 in 10.0 mi NW 13.8 mph 19.6 mph N/A   Partly Cloudy
11:51 AM 18.0 °F 3.6 °F 3.0 °F 52% 30.56 in 10.0 mi North 15.0 mph - N/A   Clear
12:51 PM 19.9 °F 8.6 °F 3.0 °F 48% 30.54 in 10.0 mi NW 10.4 mph 20.7 mph N/A   Clear
1:51 PM 21.9 °F 10.4 °F 3.9 °F 46% 30.53 in 10.0 mi North 11.5 mph - N/A   Clear
2:51 PM 21.9 °F 9.8 °F 1.9 °F 42% 30.53 in 10.0 mi NNW 12.7 mph 19.6 mph N/A   Clear
3:51 PM 21.9 °F 12.5 °F 1.9 °F 42% 30.54 in 10.0 mi NW 8.1 mph - N/A   Clear
4:51 PM 19.9 °F 9.3 °F 1.0 °F 44% 30.55 in 10.0 mi North 9.2 mph - N/A   Clear
5:51 PM 18.0 °F 6.9 °F 1.0 °F 48% 30.58 in 10.0 mi NNW 9.2 mph - N/A   Clear
6:51 PM 17.1 °F 8.7 °F 1.9 °F 52% 30.58 in 10.0 mi NW 5.8 mph - N/A   Clear
7:51 PM 16.0 °F 8.8 °F 1.9 °F 54% 30.59 in 10.0 mi NW 4.6 mph - N/A   Clear
8:51 PM 16.0 °F - 1.9 °F 54% 30.59 in 10.0 mi Calm Calm - N/A   Clear
9:51 PM 15.1 °F - 3.0 °F 59% 30.58 in 10.0 mi Calm Calm - N/A   Clear
10:51 PM 12.9 °F 6.9 °F 5.0 °F 71% 30.58 in 10.0 mi South 3.5 mph - N/A   Clear
11:51 PM 14.0 °F 6.5 °F 5.0 °F 67% 30.58 in 10.0 mi South 4.6 mph - N/A   Clear